KIRKENES_(CIV/MIL) current weather conditions

sailwx.info

Wind at 1 knots

Air temperature -15.0° C
Visibility: greater than 5.4 NM
Dewpoint -17.0° C

Last reported at 2020-Jan-24 21:50 UTC.
Time now 2020-Jan-24 23:03 UTC

Location: N 69°44' E 029°54'.
View on Google Maps.

See reports from other nearby stations

  
Tides and Currents Weather Stations Pressure Air Temp Water Temp Dewpoint Dewpoint Depression Visibility Wind Speed Wind Dir Waves Ship Positions
date/time (UTC)wind fromknots sea level pressurealtimeterstation pressurevisibilityair tempwater tempwave heightnotes
2020-Jan-24 21:50 5.4-15.0
2020-Jan-24 21:20 190 1 5.4-14.0
2020-Jan-24 20:50 5.4-14.0 Light snow showers.
2020-Jan-24 20:20 170 4 5.4-14.0
2020-Jan-24 19:50 170 4 4.3-15.0
2020-Jan-24 19:20 190 2 4.3-15.0
2020-Jan-24 18:50 180 4 5.4-15.0
2020-Jan-24 18:20 170 4 5.4-15.0 Showers in the vicinity.
2020-Jan-24 17:50 180 4 5.4-15.0 Light snow showers.
2020-Jan-24 17:20 160 4 5.4-14.0 Showers in the vicinity.
2020-Jan-24 16:50 170 5 5.4-15.0 Showers in the vicinity.
2020-Jan-24 16:20 180 6 5.4-16.0
2020-Jan-24 15:50 170 5 5.4-15.0
2020-Jan-24 15:20 160 5 5.4-14.0
2020-Jan-24 14:50 170 5 5.4-14.0
2020-Jan-24 14:20 170 4 5.4-14.0
2020-Jan-24 13:50 170 4 5.4-14.0
2020-Jan-24 13:20 170 4 5.4-13.0
2020-Jan-24 12:50 170 2 5.4-12.0 Showers in the vicinity.
2020-Jan-24 12:20 180 2 5.4-13.0 Light snow.
2020-Jan-24 11:50 170 4 5.4-12.0 Light snow.
2020-Jan-24 11:20 160 2 5.4-12.0 Light snow.
2020-Jan-24 10:50 160 2 5.4-12.0 Showers in the vicinity.
2020-Jan-24 10:20 170 4 5.4-12.0
2020-Jan-24 09:50 170 4 5.4-12.0
2020-Jan-24 09:20 150 2 5.4-12.0
2020-Jan-24 08:50 180 2 5.4-12.0
2020-Jan-24 08:20 140 4 5.4-11.0
2020-Jan-24 07:50 180 2 5.4-11.0
2020-Jan-24 07:20 150 5 4.3-10.0 Light snow.
2020-Jan-24 06:50 150 5 3.2-10.0 Light snow.
2020-Jan-24 06:20 140 4 3.2-10.0 Light snow.
2020-Jan-24 05:50 160 4 4.3-10.0 Light snow.
2020-Jan-24 05:20 150 4 4.9-10.0 Light snow.
2020-Jan-24 04:50 140 5 3.8-10.0 Light snow.
2020-Jan-24 04:20 160 5 3.2-9.0 Light snow.
2020-Jan-24 03:50 160 6 2.7-9.0 Light snow.
2020-Jan-24 03:20 150 7 3.2-9.0 Light snow.
2020-Jan-24 02:50 160 2 3.2-10.0 Light snow.
2020-Jan-24 02:20 170 1 2.1-10.0 Light snow.
2020-Jan-24 01:50 160 0 4.9-10.0 Light snow.
2020-Jan-24 01:20 170 1 2.2-10.0 Light snow.
2020-Jan-24 00:50 210 1 2.7-10.0 Light snow.
2020-Jan-24 00:20 2.2-10.0 Light snow.
2020-Jan-23 23:50 140 7 2.7-10.0 Light snow.
2020-Jan-23 23:20 140 9 1.1-10.0 Light snow.
2020-Jan-23 22:50 140 8 1.6-10.0 Light snow.
2020-Jan-23 22:20 150 9 3.8-11.0 Light snow.
2020-Jan-23 21:50 150 9 2.7-11.0 Light snow.
2020-Jan-23 21:20 150 11 2.6-11.0 Light snow.
2020-Jan-23 20:50 150 15 2.2-11.0 Light snow.
2020-Jan-23 20:20 150 14 2.7-12.0 Light snow.
2020-Jan-23 19:50 150 13 2.7-12.0 Light snow.
2020-Jan-23 19:20 150 13 5.4-13.0
2020-Jan-23 18:50 150 12 5.4-13.0 Light snow.
2020-Jan-23 18:20 160 8 5.4-13.0
2020-Jan-23 17:50 150 12 5.4-13.0
2020-Jan-23 17:20 150 12 5.4-13.0
2020-Jan-23 16:50 160 12 5.4-15.0
2020-Jan-23 16:20 160 9 5.4-14.0
2020-Jan-23 15:50 160 12 5.4-15.0
2020-Jan-23 15:20 160 12 5.4-14.0
2020-Jan-23 14:50 170 9 5.4-14.0
2020-Jan-23 14:20 160 9 5.4-14.0
2020-Jan-23 13:50 170 8 5.4-14.0
2020-Jan-23 13:20 180 6 5.4-13.0
2020-Jan-23 12:50 210 5 5.4-11.0
2020-Jan-23 12:20 210 6 5.4-11.0
2020-Jan-23 11:50 220 7 5.4-11.0
2020-Jan-23 11:20 200 4 5.4-11.0
2020-Jan-23 10:50 240 8 5.4-10.0
2020-Jan-23 10:20 240 12 5.4-10.0
2020-Jan-23 09:50 5.4-10.0
2020-Jan-23 09:20 240 14 5.4-10.0
2020-Jan-23 08:50 240 13 5.4-10.0
2020-Jan-23 08:20 240 13 5.4-10.0
2020-Jan-23 07:50 230 9 5.4-10.0
2020-Jan-23 07:20 230 6 5.4-9.0
2020-Jan-23 06:50 280 12 5.4-7.0
2020-Jan-23 06:20 300 12 5.4-7.0
2020-Jan-23 05:50 270 12 5.4-8.0
2020-Jan-23 05:20 260 9 5.4-8.0
2020-Jan-23 04:50 290 9 5.4-8.0
2020-Jan-23 04:20 290 13 5.4-8.0
2020-Jan-23 03:50 270 14 5.4-9.0
2020-Jan-23 03:20 310 14 5.4-6.0
2020-Jan-23 02:50 290 13 5.4-6.0
2020-Jan-23 02:20 280 7 5.4-6.0
2020-Jan-23 01:50 310 12 5.4-6.0
2020-Jan-23 01:20 320 20 5.4-6.0
2020-Jan-23 00:50 330 19 5.4-6.0
2020-Jan-23 00:20 320 19 5.4-6.0
2020-Jan-22 23:50 330 25 5.4-5.0 Light low drifting snow.
2020-Jan-22 23:20 330 20 5.4-5.0